Location: Sungai Kamana Besar
(2.6333°N, 113.4333°E)
Time: 05:26:53
(UTC+00:00)

Cosmos 2278 - Pass Details

Date: 29 May 2022
Orbit: 838 x 854 km, 71.1° (Epoch: 24 June)

Event Time Altitude Azimuth Distance (km) Brightness Sun altitude
Rises 12:05:21 0° 198° (SSW) 3,385 6.8 -22.4°
Reaches altitude 10° 12:07:48 10° 199° (SSW) 2,450 6.0 -23.0°
Maximum altitude 12:13:24 78° 285° (WNW) 859 3.7 -24.2°
Drops below altitude 10° 12:19:01 10° 11° (N) 2,448 6.2 -25.5°
Sets 12:21:28 0° 13° (NNE) 3,382 7.0 -26.1°
